When you browse on this site, cookies collect data to enhance your experience and personalize the content and advertising you see.
Visit our Privacy Policy to learn more. By continuing to use the site, you agree to this use of cookies and data.
  • In Czech Republic
  • List of Countries
  • For 7 days
  • Water Temperature
  • Satellite Maps
  • Weather Map
  • Weather Widgets
  • user-avatar
    Login

    Hourly Weather Garoua

    Today, 25 June, Tuesday

    Time Temperature Precipitation Wind Pressure Humidity
    00:00 +27°C° 0 mm 2 mps 742 mmHg 82%
    01:00 +27°C° 0 mm 2 mps 742 mmHg 84%
    02:00 +26°C° 0 mm 2 mps 742 mmHg 85%
    03:00 +26°C° 0 mm 3 mps 741 mmHg 87%
    04:00 +25°C° 0 mm 4 mps 741 mmHg 88%
    05:00 +25°C° 0.3 mm 4 mps 742 mmHg 88%
    06:00 +25°C° 0.3 mm 4 mps 742 mmHg 88%
    07:00 +25°C° 0.3 mm 4 mps 742 mmHg 88%
    08:00 +26°C° 0.6 mm 3 mps 743 mmHg 87%
    09:00 +27°C° 0.6 mm 3 mps 743 mmHg 85%
    10:00 +27°C° 0.6 mm 3 mps 743 mmHg 83%
    11:00 +29°C° 0 mm 3 mps 743 mmHg 76%
    12:00 +31°C° 0 mm 2 mps 742 mmHg 69%
    13:00 +34°C° 0 mm 2 mps 742 mmHg 62%
    14:00 +34°C° 0 mm 2 mps 741 mmHg 61%
    15:00 +34°C° 0 mm 2 mps 741 mmHg 59%
    16:00 +35°C° 0 mm 2 mps 740 mmHg 58%
    17:00 +32°C° 0 mm 2 mps 740 mmHg 64%
    18:00 +31°C° 0 mm 1 mps 741 mmHg 70%
    19:00 +29°C° 0 mm 1 mps 741 mmHg 76%
    20:00 +29°C° 0.3 mm 2 mps 741 mmHg 79%
    21:00 +28°C° 0.3 mm 2 mps 742 mmHg 82%
    22:00 +27°C° 0.3 mm 2 mps 743 mmHg 86%
    23:00 +27°C° 0.8 mm 2 mps 742 mmHg 88%

    Tomorrow, 26 June, Wednesday

    Time Temperature Precipitation Wind Pressure Humidity
    00:00 +27°C° 0.8 mm 2 mps 742 mmHg 90%
    01:00 +26°C° 0.8 mm 3 mps 742 mmHg 92%
    02:00 +26°C° 0 mm 2 mps 742 mmHg 93%
    03:00 +26°C° 0 mm 2 mps 742 mmHg 93%
    04:00 +26°C° 0 mm 1 mps 742 mmHg 94%
    05:00 +26°C° 0 mm 1 mps 742 mmHg 93%
    06:00 +26°C° 0 mm 1 mps 743 mmHg 91%
    07:00 +26°C° 0 mm 1 mps 744 mmHg 90%
    08:00 +27°C° 0.1 mm 2 mps 744 mmHg 85%
    09:00 +28°C° 0.1 mm 2 mps 744 mmHg 80%
    10:00 +30°C° 0.1 mm 3 mps 745 mmHg 74%
    11:00 +32°C° 0 mm 4 mps 744 mmHg 70%
    12:00 +33°C° 0 mm 4 mps 743 mmHg 65%
    13:00 +34°C° 0 mm 5 mps 742 mmHg 61%
    14:00 +34°C° 0 mm 4 mps 742 mmHg 60%
    15:00 +34°C° 0 mm 3 mps 741 mmHg 59%
    16:00 +34°C° 0 mm 2 mps 741 mmHg 59%
    17:00 +32°C° 0.1 mm 1 mps 741 mmHg 64%
    18:00 +30°C° 0.1 mm 1 mps 742 mmHg 70%
    19:00 +29°C° 0.1 mm 1 mps 742 mmHg 76%
    20:00 +28°C° 0.1 mm 1 mps 742 mmHg 79%
    21:00 +28°C° 0.1 mm 1 mps 743 mmHg 81%
    22:00 +27°C° 0.1 mm 2 mps 743 mmHg 83%
    23:00 +27°C° 0.1 mm 2 mps 743 mmHg 84%

    Day after tomorrow, 27 June, Thursday

    Time Temperature Precipitation Wind Pressure Humidity
    00:00 +27°C° 0.1 mm 2 mps 743 mmHg 85%
    01:00 +26°C° 0.1 mm 2 mps 742 mmHg 86%
    02:00 +26°C° 0 mm 1 mps 742 mmHg 88%
    03:00 +26°C° 0 mm 1 mps 742 mmHg 90%
    04:00 +25°C° 0 mm 1 mps 742 mmHg 91%
    05:00 +26°C° 0.1 mm 1 mps 742 mmHg 90%
    06:00 +26°C° 0.1 mm 1 mps 742 mmHg 89%
    07:00 +26°C° 0.1 mm 2 mps 743 mmHg 87%
    08:00 +28°C° 0 mm 2 mps 743 mmHg 80%
    09:00 +30°C° 0 mm 2 mps 743 mmHg 72%
    10:00 +33°C° 0 mm 3 mps 744 mmHg 64%
    11:00 +33°C° 0.7 mm 3 mps 743 mmHg 62%
    12:00 +34°C° 0.7 mm 3 mps 743 mmHg 59%
    13:00 +35°C° 0.7 mm 3 mps 743 mmHg 57%
    14:00 +31°C° 3.1 mm 2 mps 742 mmHg 68%
    15:00 +29°C° 3.1 mm 2 mps 742 mmHg 79%
    16:00 +26°C° 3.1 mm 1 mps 741 mmHg 91%
    17:00 +26°C° 0.1 mm 1 mps 741 mmHg 91%
    18:00 +26°C° 0.1 mm 1 mps 742 mmHg 91%
    19:00 +26°C° 0.1 mm 1 mps 742 mmHg 92%
    20:00 +26°C° 0.1 mm 1 mps 742 mmHg 92%
    21:00 +25°C° 0.1 mm 1 mps 743 mmHg 93%
    22:00 +25°C° 0.1 mm 1 mps 743 mmHg 94%
    23:00 +25°C° 0 mm 1 mps 743 mmHg 93%

    28 June, Friday

    Time Temperature Precipitation Wind Pressure Humidity
    00:00 +25°C° 0 mm 1 mps 743 mmHg 93%
    01:00 +25°C° 0 mm 1 mps 743 mmHg 92%
    02:00 +25°C° 0 mm 1 mps 742 mmHg 93%
    03:00 +25°C° 0 mm 1 mps 742 mmHg 93%
    04:00 +25°C° 0 mm 1 mps 742 mmHg 93%
    05:00 +25°C° 0 mm 1 mps 743 mmHg 93%
    06:00 +25°C° 0 mm 2 mps 743 mmHg 92%
    07:00 +26°C° 0 mm 2 mps 743 mmHg 91%
    08:00 +27°C° 0 mm 2 mps 743 mmHg 85%
    09:00 +28°C° 0 mm 2 mps 744 mmHg 80%
    10:00 +29°C° 0 mm 2 mps 744 mmHg 74%
    11:00 +30°C° 0 mm 2 mps 743 mmHg 69%
    12:00 +32°C° 0 mm 2 mps 743 mmHg 64%
    13:00 +34°C° 0 mm 2 mps 742 mmHg 59%
    14:00 +34°C° 0.1 mm 3 mps 742 mmHg 59%
    15:00 +34°C° 0.1 mm 3 mps 742 mmHg 59%
    16:00 +34°C° 0.1 mm 3 mps 741 mmHg 59%
    17:00 +31°C° 0 mm 2 mps 742 mmHg 66%
    18:00 +30°C° 0 mm 2 mps 742 mmHg 73%
    19:00 +28°C° 0 mm 2 mps 742 mmHg 80%
    20:00 +28°C° 0.4 mm 1 mps 742 mmHg 82%
    21:00 +27°C° 0.4 mm 1 mps 743 mmHg 84%
    22:00 +27°C° 0.4 mm 1 mps 743 mmHg 86%
    23:00 +27°C° 0 mm 1 mps 743 mmHg 86%

    29 June, Saturday

    Time Temperature Precipitation Wind Pressure Humidity
    00:00 +24°C° 0 mm 0 mps 743 mmHg 86%
    01:00 +24°C° 0 mm 0 mps 743 mmHg 86%
    02:00 +24°C° 0 mm 0 mps 743 mmHg 87%
    03:00 +24°C° 0 mm 0 mps 742 mmHg 88%
    04:00 +24°C° 0 mm 0 mps 742 mmHg 89%
    05:00 +26°C° 0 mm 1 mps 743 mmHg 88%
    06:00 +26°C° 0 mm 1 mps 743 mmHg 88%
    07:00 +26°C° 0 mm 1 mps 743 mmHg 87%
    08:00 +28°C° 0 mm 1 mps 744 mmHg 79%
    09:00 +30°C° 0 mm 2 mps 744 mmHg 72%
    10:00 +32°C° 0 mm 2 mps 744 mmHg 64%
    11:00 +34°C° 0 mm 2 mps 744 mmHg 59%
    12:00 +35°C° 0 mm 2 mps 743 mmHg 54%
    13:00 +36°C° 0 mm 1 mps 742 mmHg 49%
    14:00 +36°C° 0 mm 2 mps 742 mmHg 51%
    15:00 +36°C° 0 mm 2 mps 741 mmHg 54%
    16:00 +35°C° 0 mm 2 mps 741 mmHg 56%
    17:00 +34°C° 0 mm 2 mps 741 mmHg 62%
    18:00 +31°C° 0 mm 2 mps 741 mmHg 67%
    19:00 +30°C° 0 mm 1 mps 741 mmHg 73%
    20:00 +29°C° 0 mm 1 mps 741 mmHg 74%
    21:00 +29°C° 0 mm 1 mps 742 mmHg 76%
    22:00 +28°C° 0 mm 1 mps 742 mmHg 77%
    23:00 +28°C° 0 mm 1 mps 742 mmHg 78%

    30 June, Sunday

    Time Temperature Precipitation Wind Pressure Humidity
    00:00 +28°C° 0 mm 1 mps 742 mmHg 80%
    01:00 +28°C° 0 mm 1 mps 742 mmHg 81%
    02:00 +27°C° 0 mm 1 mps 742 mmHg 82%
    03:00 +27°C° 0 mm 1 mps 742 mmHg 84%
    04:00 +27°C° 0 mm 1 mps 742 mmHg 85%
    05:00 +27°C° 0.1 mm 2 mps 743 mmHg 85%
    06:00 +27°C° 0.1 mm 2 mps 743 mmHg 84%
    07:00 +27°C° 0.1 mm 2 mps 744 mmHg 84%
    08:00 +29°C° 0 mm 3 mps 744 mmHg 77%
    09:00 +31°C° 0 mm 3 mps 744 mmHg 71%
    10:00 +33°C° 0 mm 3 mps 744 mmHg 64%
    11:00 +35°C° 0 mm 3 mps 743 mmHg 60%
    12:00 +36°C° 0 mm 3 mps 743 mmHg 56%
    13:00 +37°C° 0 mm 3 mps 742 mmHg 51%
    14:00 +37°C° 0 mm 2 mps 742 mmHg 50%
    15:00 +37°C° 0 mm 2 mps 741 mmHg 49%
    16:00 +38°C° 0 mm 2 mps 740 mmHg 47%
    17:00 +36°C° 0 mm 2 mps 740 mmHg 55%
    18:00 +34°C° 0 mm 2 mps 741 mmHg 62%
    19:00 +31°C° 0 mm 2 mps 741 mmHg 69%
    20:00 +30°C° 0.2 mm 3 mps 741 mmHg 72%
    21:00 +30°C° 0.2 mm 3 mps 742 mmHg 76%
    22:00 +29°C° 0.2 mm 3 mps 742 mmHg 80%
    23:00 +28°C° 0.8 mm 3 mps 742 mmHg 83%
    Show more